Regional Weather Roundup
Issued by NWS

Home | Current Version | Previous Version | Graphics & Text | Print | Product List | Glossary Off
Versions: 1 2 3 4 5 6 7 8 9 10 11 12 13 14 15 16 17 18 19 20 21 22 23 24 25 26 27 28 29 30 31 32 33 34 35 36 37 38 39 40 41 42 43 44 45 46 47 48 49 50

000
ASUS43 KTOP 052259
RWRKS

WEATHER ROUNDUP FOR KANSAS
NATIONAL WEATHER SERVICE GOODLAND KS
500 PM CST MON DEC 05 2016

NOTE:  "FAIR" INDICATES FEW OR NO CLOUDS BELOW 12,000 FEET WITH NO
SIGNIFICANT WEATHER AND/OR OBSTRUCTIONS TO VISIBILITY.

KSZ001>006-013>018-027>032-041>047-060000-
NORTHWEST KANSAS

CITY           SKY/WX    TMP DP  RH WIND       PRES   REMARKS
GOODLAND       CLOUDY    44   7  21 N21G35    29.68R HAZE
HAYS           CLEAR     54  30  40 S3        29.62R
HILL CITY      CLEAR     49  29  46 N5        29.66R
RUSSELL        CLEAR     49  35  58 S9        29.61R
$$

KSZ061>065-074>080-084>089-060000-
SOUTHWEST KANSAS

CITY           SKY/WX    TMP DP  RH WIND       PRES   REMARKS
DODGE CITY     CLEAR     54  30  40 S8        29.55S
ELKHART          N/A     59  27  29 E9          N/A
GARDEN CITY    CLEAR     53  31  42 SE3       29.56R
GREAT BEND     CLEAR     50  33  52 SE8       29.63R
LIBERAL        CLEAR     57  28  33 S9        29.55S
$$

KSZ066>073-081>083-090>101-060000-
SOUTHEAST KANSAS

CITY           SKY/WX    TMP DP  RH WIND       PRES   REMARKS
CHANUTE        CLEAR     45  38  76 S8        29.72F
COFFEYVILLE    CLEAR     45  39  79 SW7       29.73F
HUTCHINSON     CLEAR     48  36  63 S7        29.66R
MEDICINE LODGE   N/A     50  36  58 S15       29.62R
NEWTON         CLEAR     48  35  60 S13       29.67R
PARSONS        CLEAR     47  38  71 S6        29.73S
WICHITA INTL   PTCLDY    49  36  61 S13       29.65R
WICHITA JABRA  CLEAR     48  36  63 S9        29.65S
WINFIELD       CLEAR     48  39  71 S12       29.68S
$$

KSZ007>012-019>026-033>040-048>060-102>105-060000-
NORTHEAST KANSAS

CITY           SKY/WX    TMP DP  RH WIND       PRES   REMARKS
CONCORDIA      CLEAR     47  35  63 S10       29.64F
EMPORIA        CLEAR     45  37  73 SE8       29.69F
LAWRENCE       CLEAR     44  35  70 SE7       29.74R
MANHATTAN      CLEAR     50  36  58 S8        29.68R
OLATHE IND     CLEAR     47  33  58 SE13      29.74S
OLATHE EXE     CLEAR     45  32  60 S12       29.74S
SALINA         CLEAR     49  35  58 S9        29.67R
TOPEKA BILLARD CLEAR     47  35  63 SE12      29.71F
TOPEKA FORBES  CLEAR     48  34  58 SE13      29.71F
$$



USA.gov is the U.S. government's official web portal to all federal, state and local government web resources and services.